Date String (YYYY-MM-DD hh:mm:ss) UTC,Instrument flags,Ambient pressure (hPa),Sample flow (lpm),Bypass flow (lpm),Sample temperature (°C),Ambient temperature (°C),ASC tube jacket temperature (°C),LED temperature (°C),Box temperature (°C),Sample RH (%),Span deviation,Mass concentration (μg/m³),Mass concentration (μg/m³),Mass concentration (μg/m³)
DateTimeUTC,F1_M11,P_M11,Q1_M11,Q2_M11,T1_M11,T2_M11,T3_M11,T4_M11,T5_M11,U1_M11,ZSPAN_M11,X0_M11,X2_M11,X1_M11
2022-07-14 15:00:00,,0831.6,5.00,0.00,29.5,28.2,00.0,38.3,31.4,27.1,0000.0,0010.11,0005.21,0004.46
2022-07-14 15:01:00,,0831.6,5.01,0.00,29.6,28.3,00.0,38.3,31.5,26.8,0000.0,0010.17,0005.22,0004.46
2022-07-14 15:02:00,,0831.6,4.99,0.00,29.6,28.4,00.0,38.3,31.5,26.4,0000.0,0010.52,0005.25,0004.45
2022-07-14 15:03:00,,0831.6,5.00,0.00,29.6,28.5,00.0,38.3,31.6,26.6,0000.0,0010.78,0005.24,0004.44
2022-07-14 15:04:00,,0831.6,4.99,0.00,29.6,28.2,00.0,38.3,31.6,26.4,0000.0,0011.27,0005.22,0004.44
2022-07-14 15:05:00,,0831.6,5.00,0.00,29.6,27.5,00.0,38.2,31.4,26.4,0000.0,0011.25,0005.21,0004.43
2022-07-14 15:06:00,,0831.5,4.99,0.00,29.6,27.1,00.0,38.2,31.3,26.4,0000.0,0011.90,0005.17,0004.41
2022-07-14 15:07:00,,0831.6,5.02,0.00,29.5,27.1,00.0,38.2,31.2,27.0,0000.0,0012.40,0005.12,0004.39
2022-07-14 15:08:00,,0831.6,5.00,0.00,29.4,27.2,00.0,38.2,31.2,26.9,0000.0,0012.42,0005.12,0004.38
2022-07-14 15:09:00,,0831.5,5.00,0.00,29.4,27.4,00.0,38.2,31.2,26.7,0000.0,0012.74,0005.11,0004.35
2022-07-14 15:10:00,,0831.6,5.00,0.00,29.4,27.5,00.0,38.2,31.2,26.3,0000.0,0013.59,0005.06,0004.32
2022-07-14 15:11:00,,0831.5,5.00,0.00,29.4,27.7,00.0,38.2,31.3,26.5,0000.0,0014.18,0005.08,0004.30
2022-07-14 15:12:00,,0831.6,4.99,0.00,29.4,27.9,00.0,38.2,31.3,26.5,0000.0,0014.02,0005.08,0004.29
2022-07-14 15:13:00,,0831.6,5.01,0.00,29.4,28.0,00.0,38.2,31.3,26.7,0000.0,0013.09,0005.05,0004.28
2022-07-14 15:14:00,,0831.6,4.99,0.00,29.5,28.1,00.0,38.2,31.4,26.0,0000.0,0012.74,0005.05,0004.26
2022-07-14 15:15:00,,0831.6,5.01,0.00,29.5,28.3,00.0,38.2,31.4,25.8,0000.0,0012.24,0005.03,0004.24
2022-07-14 15:16:00,,0831.7,5.00,0.00,29.5,28.4,00.0,38.2,31.5,25.6,0000.0,0012.38,0005.02,0004.22
2022-07-14 15:17:00,,0831.6,5.01,0.00,29.6,28.5,00.0,38.3,31.5,25.7,0000.0,0011.46,0004.99,0004.20
2022-07-14 15:18:00,,0831.6,5.00,0.00,29.6,28.1,00.0,38.2,31.5,26.0,0000.0,0011.20,0004.96,0004.19
2022-07-14 15:19:00,,0831.6,4.99,0.00,29.5,27.3,00.0,38.2,31.3,26.0,0000.0,0011.81,0004.93,0004.18
2022-07-14 15:20:00,,0831.5,5.00,0.00,29.5,27.0,00.0,38.1,31.2,26.1,0000.0,0011.44,0004.88,0004.18
2022-07-14 15:21:00,,0831.5,5.00,0.00,29.4,27.0,00.0,38.1,31.2,26.2,0000.0,0010.44,0004.82,0004.16
2022-07-14 15:22:00,,0831.5,4.99,0.00,29.4,27.1,00.0,38.1,31.1,26.2,0000.0,0009.89,0004.77,0004.14
2022-07-14 15:23:00,,0831.5,5.00,0.00,29.3,27.3,00.0,38.1,31.1,26.6,0000.0,0009.70,0004.71,0004.11
2022-07-14 15:24:00,,0831.4,5.01,0.00,29.3,27.5,00.0,38.1,31.1,26.6,0000.0,0009.50,0004.65,0004.09
2022-07-14 15:25:00,,0831.5,5.00,0.00,29.3,27.6,00.0,38.1,31.2,26.0,0000.0,0009.50,0004.61,0004.08
2022-07-14 15:26:00,,0831.5,4.99,0.00,29.4,27.8,00.0,38.1,31.2,26.3,0000.0,0009.48,0004.59,0004.06
2022-07-14 15:27:00,,0831.5,5.00,0.00,29.4,28.0,00.0,38.1,31.3,26.6,0000.0,0009.44,0004.59,0004.06
2022-07-14 15:28:00,,0831.5,5.00,0.00,29.4,28.1,00.0,38.2,31.3,26.6,0000.0,0009.45,0004.58,0004.06
2022-07-14 15:29:00,,0831.4,5.00,0.00,29.4,28.2,00.0,38.2,31.4,25.6,0000.0,0009.37,0004.58,0004.05
2022-07-14 15:30:00,,0831.4,5.00,0.00,29.5,28.3,00.0,38.2,31.4,25.2,0000.0,0009.41,0004.54,0004.04
2022-07-14 15:31:00,,0831.5,5.00,0.00,29.5,28.4,00.0,38.2,31.5,24.8,0000.0,0009.59,0004.52,0004.01
2022-07-14 15:32:00,,0831.5,4.99,0.00,29.5,28.0,00.0,38.2,31.4,25.1,0000.0,0009.62,0004.52,0004.00
2022-07-14 15:33:00,,0831.6,5.01,0.00,29.5,27.3,00.0,38.1,31.3,24.8,0000.0,0009.67,0004.51,0003.99
2022-07-14 15:34:00,,0831.5,5.00,0.00,29.4,27.0,00.0,38.1,31.2,25.3,0000.0,0009.95,0004.51,0003.99
2022-07-14 15:35:00,,0831.5,4.99,0.00,29.4,27.0,00.0,38.1,31.1,25.5,0000.0,0010.40,0004.50,0003.99
2022-07-14 15:36:00,,0831.5,5.00,0.00,29.3,27.1,00.0,38.1,31.1,25.9,0000.0,0011.17,0004.51,0003.99
2022-07-14 15:37:00,,0831.5,5.01,0.00,29.3,27.3,00.0,38.1,31.1,26.0,0000.0,0011.93,0004.49,0004.00
2022-07-14 15:38:00,,0831.5,5.00,0.00,29.3,27.5,00.0,38.1,31.1,25.7,0000.0,0011.72,0004.49,0004.01
2022-07-14 15:39:00,,0831.5,5.00,0.00,29.3,27.6,00.0,38.1,31.1,25.5,0000.0,0011.66,0004.50,0004.00
2022-07-14 15:40:00,,0831.5,5.01,0.00,29.3,27.8,00.0,38.1,31.2,25.9,0000.0,0011.40,0004.53,0004.01
2022-07-14 15:41:00,,0831.5,5.00,0.00,29.4,27.9,00.0,38.1,31.3,26.1,0000.0,0011.28,0004.60,0004.04
2022-07-14 15:42:00,,0831.5,5.00,0.00,29.4,28.1,00.0,38.1,31.3,25.6,0000.0,0011.92,0004.70,0004.08
2022-07-14 15:43:00,,0831.5,5.00,0.00,29.4,28.2,00.0,38.1,31.3,25.6,0000.0,0012.11,0004.78,0004.11
2022-07-14 15:44:00,,0831.4,5.00,0.00,29.4,28.3,00.0,38.1,31.4,25.9,0000.0,0012.13,0004.82,0004.15
2022-07-14 15:45:00,,0831.4,5.00,0.00,29.5,28.4,00.0,38.2,31.4,26.0,0000.0,0012.06,0004.88,0004.18
2022-07-14 15:46:00,,0831.5,5.00,0.00,29.5,28.5,00.0,38.2,31.5,25.6,0000.0,0011.77,0004.97,0004.20
2022-07-14 15:47:00,,0831.5,5.00,0.00,29.5,28.0,00.0,38.1,31.4,25.8,0000.0,0010.82,0004.98,0004.23
2022-07-14 15:48:00,,0831.5,5.00,0.00,29.5,27.3,00.0,38.1,31.3,26.2,0000.0,0010.15,0005.06,0004.26
2022-07-14 15:49:00,,0831.5,4.99,0.00,29.4,27.1,00.0,38.1,31.2,26.0,0000.0,0010.85,0005.11,0004.28
2022-07-14 15:50:00,,0831.5,5.01,0.00,29.4,27.1,00.0,38.1,31.1,26.4,0000.0,0011.64,0005.12,0004.29
2022-07-14 15:51:00,,0831.5,5.00,0.00,29.3,27.2,00.0,38.1,31.1,26.3,0000.0,0011.82,0005.12,0004.30
2022-07-14 15:52:00,,0831.5,4.99,0.00,29.3,27.3,00.0,38.1,31.1,26.5,0000.0,0011.45,0005.12,0004.31
2022-07-14 15:53:00,,0831.5,5.00,0.00,29.3,27.5,00.0,38.1,31.1,26.6,0000.0,0010.88,0005.14,0004.32
2022-07-14 15:54:00,,0831.5,5.01,0.00,29.3,27.7,00.0,38.1,31.2,27.1,0000.0,0011.22,0005.13,0004.33
2022-07-14 15:55:00,,0831.5,4.99,0.00,29.3,27.8,00.0,38.1,31.2,27.4,0000.0,0012.12,0005.17,0004.33
2022-07-14 15:56:00,,0831.5,5.01,0.00,29.4,28.0,00.0,38.1,31.3,27.1,0000.0,0012.74,0005.15,0004.34
2022-07-14 15:57:00,,0831.5,5.00,0.00,29.4,28.1,00.0,38.1,31.3,26.5,0000.0,0012.60,0005.10,0004.34
2022-07-14 15:58:00,,0831.5,4.99,0.00,29.4,28.2,00.0,38.1,31.4,27.1,0000.0,0012.83,0005.09,0004.35
2022-07-14 15:59:00,,0831.4,4.99,0.00,29.4,28.3,00.0,38.1,31.4,26.7,0000.0,0013.39,0005.08,0004.35
